Lapse_Rate
5.8 5.7 5.7 5.6 5.5 5.5 5.4 5.2 5.3 5.3 5.1 4.9 4.9 4.9 4.8 5.0 5.1 5.2 5.1 5.2 5.2 5.0 5.0 5.2 5.5 5.5 5.6 5.8 5.9 6.0 5.9 5.9 5.8 5.6 5.6 5.7 5.7 5.9 5.9 5.7 5.7 6.0 6.2
5.7 5.9 5.7 5.7 5.5 5.6 5.5 5.4 5.3 5.2 4.9 5.0 4.9 5.0 4.9 5.1 5.1 5.2 5.3 5.3 5.3 5.3 5.2 5.3 5.3 5.4 5.5 5.4 5.5 5.7 5.7 5.8 5.8 5.7 5.6 5.7 5.9 5.9 6.0 5.8 5.9 5.8 6.0
5.7 5.6 5.5 5.8 5.6 5.6 5.4 5.3 5.2 5.1 5.1 5.1 5.2 5.2 5.3 5.3 5.4 5.3 5.3 5.4 5.4 5.4 5.5 5.4 5.4 5.5 5.5 5.3 5.5 5.8 6.0 5.7 5.5 5.6 5.7 5.6 5.8 5.8 5.6 5.7 5.8 5.9 5.9
5.6 5.6 5.6 5.8 5.8 5.6 5.2 5.2 5.3 5.3 5.2 5.3 5.3 5.4 5.5 5.5 5.4 5.4 5.4 5.5 5.6 5.5 5.5 5.5 5.6 5.7 5.7 5.7 5.7 5.7 5.7 5.6 5.5 5.6 5.7 5.8 5.8 5.8 5.9 6.0 6.1 5.9 5.8
5.7 5.8 5.8 5.8 5.5 5.3 5.5 5.5 5.5 5.5 5.4 5.3 5.2 5.3 5.4 5.5 5.6 5.5 5.5 5.5 5.6 5.6 5.7 5.7 5.7 5.8 5.9 6.0 5.8 5.8 5.8 5.5 5.5 5.6 5.6 5.7 5.7 5.8 5.8 6.0 6.1 5.8 5.7
5.7 5.8 5.7 5.5 5.5 5.6 5.6 5.7 5.5 5.4 5.2 5.2 5.3 5.4 5.5 5.7 5.7 5.4 5.4 5.4 5.5 5.6 5.7 5.9 5.9 6.0 6.0 5.9 5.9 5.9 5.8 5.6 5.6 5.7 5.7 5.8 6.0 5.9 5.9 6.0 6.0 5.8 5.9
5.7 5.6 5.5 5.5 5.7 5.6 5.7 5.5 5.5 5.4 5.3 5.3 5.2 5.4 5.4 5.4 5.3 5.2 5.4 5.4 5.5 5.8 5.6 5.6 5.8 5.9 5.9 6.1 6.2 6.3 6.3 6.1 5.9 5.9 5.8 5.9 6.0 6.2 6.1 5.9 6.0 6.1 6.0
5.4 5.5 5.6 5.8 5.8 5.8 5.6 5.6 5.6 5.6 5.4 5.4 5.4 5.4 5.5 5.5 5.4 5.5 5.5 5.6 5.6 5.5 5.8 5.7 5.7 6.0 6.2 6.4 6.3 6.6 6.5 6.2 6.0 6.2 6.3 6.2 6.3 6.3 6.4 6.5 6.3 6.1 6.0
5.6 5.7 5.8 5.8 5.7 5.7 5.6 5.5 5.6 5.7 5.8 5.7 5.4 5.3 5.5 5.5 5.5 5.7 5.7 5.8 5.8 6.0 5.8 6.0 6.3 6.4 6.3 6.3 6.6 6.5 6.3 6.2 6.5 6.4 6.5 6.6 6.5 6.4 6.4 6.3 6.5 6.5 6.5
5.7 5.8 5.8 5.8 5.6 5.5 5.5 5.7 5.9 6.0 6.0 5.7 5.4 5.6 5.6 5.6 5.7 5.8 5.8 5.9 5.9 6.0 6.0 6.1 6.5 6.6 6.6 6.6 6.7 6.5 6.4 6.4 6.1 6.2 6.4 6.5 6.4 6.6 6.5 6.4 6.4 6.4 6.6
5.9 5.9 5.8 5.7 5.4 5.5 5.8 6.1 6.1 6.1 5.9 5.7 5.7 5.9 5.8 5.8 5.9 5.9 6.0 6.0 6.1 6.1 6.3 6.3 6.3 6.4 6.7 6.5 6.5 6.5 6.5 6.6 6.6 6.7 6.9 6.8 6.6 6.7 6.5 6.6 6.6 6.5 6.7
5.9 5.8 5.6 5.5 5.5 5.6 5.8 6.1 6.1 5.9 5.8 5.7 5.9 5.8 5.7 5.6 5.5 5.7 5.8 5.9 6.0 6.1 6.2 6.2 6.3 6.4 6.5 6.6 6.5 6.5 6.5 6.5 6.5 6.5 6.8 6.7 6.8 6.8 6.7 6.6 6.7 7.0 7.0
5.7 5.4 5.4 5.5 5.6 5.7 5.8 6.0 6.0 6.0 5.8 5.7 5.7 5.7 5.4 5.6 5.5 5.5 5.8 5.7 5.8 5.9 6.1 6.4 6.4 6.4 6.4 6.5 6.4 6.2 6.3 6.3 6.2 6.2 6.0 6.3 6.3 6.4 6.5 6.3 6.3 6.3 6.6
5.5 5.3 5.3 5.4 5.5 5.6 5.7 5.8 5.8 5.9 5.6 5.6 5.5 5.4 5.6 5.6 5.5 5.5 5.7 5.8 5.8 5.7 6.0 6.2 6.1 6.2 6.2 6.2 6.2 6.5 6.3 6.2 6.0 6.2 6.3 5.9 5.9 6.0 6.0 6.4 6.2 6.2 6.2
5.3 5.2 5.2 5.3 5.5 5.5 5.3 5.4 5.5 5.6 5.5 5.4 5.4 5.4 5.3 5.5 5.6 5.6 5.7 5.8 5.7 5.9 6.2 6.0 6.1 6.4 6.3 6.5 6.6 6.5 6.4 6.4 6.2 6.2 6.0 5.6 5.6 5.7 5.6 5.6 6.2 6.1 6.4
5.3 5.2 5.3 5.4 5.5 5.4 5.2 5.3 5.3 5.6 5.3 5.5 5.3 5.4 5.3 5.4 5.6 5.9 5.8 5.6 5.5 5.7 6.0 5.9 6.2 6.1 6.3 6.8 7.0 6.9 6.7 6.5 6.4 6.1 5.8 5.6 5.7 5.5 5.6 5.7 6.1 5.9 6.2
5.3 5.3 5.4 5.5 5.5 5.3 5.2 5.2 5.2 5.4 5.3 5.2 5.3 5.2 5.1 5.4 5.7 5.8 5.5 5.2 5.5 5.6 5.9 6.1 6.1 6.4 6.6 6.8 6.9 7.0 6.9 6.8 6.5 6.1 5.8 5.6 5.7 5.7 5.5 5.6 5.9 5.9 6.2
5.4 5.3 5.3 5.4 5.4 5.4 5.3 5.3 5.3 5.2 5.1 5.2 5.2 5.2 5.2 5.2 5.4 5.6 5.4 5.3 5.6 5.6 5.9 6.1 6.0 6.3 6.5 6.4 6.7 6.7 6.7 6.9 6.6 6.2 5.8 5.6 5.2 5.4 5.1 5.2 5.6 5.9 6.2
5.5 5.5 5.5 5.6 5.6 5.5 5.4 5.4 5.4 5.0 5.1 5.2 5.1 4.9 4.9 5.0 5.3 5.3 5.2 5.3 5.4 5.7 5.8 5.9 5.9 6.2 6.4 6.5 6.6 6.5 6.3 6.1 5.9 5.9 5.8 5.6 5.4 5.0 5.0 5.0 5.3 5.4 5.9
5.7 5.8 5.8 5.8 5.6 5.5 5.4 5.5 5.5 5.2 5.1 5.0 4.9 4.8 4.9 5.1 5.1 5.2 5.3 5.5 5.7 5.7 5.8 5.9 6.1 6.5 6.6 6.8 6.6 6.3 6.0 6.0 6.0 5.6 5.5 5.3 5.0 4.7 4.9 5.1 5.1 5.2 5.9
5.7 5.7 5.8 5.7 5.7 5.7 5.6 5.6 5.5 5.5 5.3 5.1 5.0 4.9 5.0 5.1 5.1 5.1 5.1 5.4 5.7 5.8 5.9 5.8 6.1 6.0 6.2 6.5 6.3 6.2 6.1 6.0 5.9 5.8 5.5 5.2 5.3 4.8 4.8 4.8 5.2 5.7 5.6
5.9 5.7 5.7 5.7 5.9 5.8 5.6 5.5 5.5 5.2 5.3 5.0 5.0 4.8 4.9 5.1 5.2 5.3 5.5 5.6 5.7 6.0 6.0 5.8 5.8 5.7 5.9 6.1 6.0 6.1 6.0 5.9 5.5 5.2 5.0 5.0 4.9 4.9 4.8 5.1 5.2 5.3 5.7
6.1 6.1 6.0 5.9 5.8 5.7 5.7 5.6 5.5 5.1 5.0 4.9 4.9 5.0 5.1 5.0 5.2 5.4 5.4 5.5 5.6 5.7 5.5 5.5 5.6 5.8 5.9 6.1 6.1 5.7 5.8 5.6 5.4 5.2 4.8 4.8 4.9 4.9 5.0 5.4 5.0 5.6 6.0
6.0 6.0 6.0 6.1 6.0 5.7 5.6 5.5 5.4 5.0 4.8 4.8 4.9 4.9 5.1 5.1 5.3 5.4 5.5 5.6 5.5 5.6 5.5 5.6 5.9 6.1 6.1 6.1 6.1 6.0 5.2 5.0 4.9 4.9 4.9 4.9 5.1 5.0 5.0 5.2 5.5 5.7 5.8
6.1 6.1 6.0 5.9 5.9 5.8 5.8 5.5 5.2 5.2 5.0 5.0 5.0 5.0 5.0 5.1 5.3 5.4 5.5 5.5 5.5 5.7 5.8 6.2 6.0 6.0 5.9 5.9 5.7 5.0 4.6 4.6 4.5 4.5 4.7 4.6 4.8 5.0 4.9 5.1 5.7 5.6 6.1
6.2 6.3 6.3 6.0 5.8 5.7 5.8 5.6 5.5 5.4 5.3 5.3 5.2 5.2 5.1 5.1 5.1 5.3 5.5 5.7 5.8 5.9 5.9 5.9 5.8 5.8 5.8 5.7 5.6 5.1 4.9 5.1 4.6 4.7 4.7 4.7 4.8 4.9 4.9 5.3 5.7 5.7 6.0
Wind_Speed
7 12 11 10 10 10 13 12 11 11 11 10 11 11 11 12 13 12 12 10 9 8 7 7 7 7 7 8 11 10 10 10 10 10 10 11 11 11 12 13 10 12 14
13 13 11 11 11 10 11 12 10 10 9 8 8 8 9 9 10 10 10 10 8 7 6 5 5 5 6 6 7 8 8 7 8 9 9 11 10 11 11 11 12 12 13
14 14 13 11 12 11 10 11 9 9 8 9 8 7 7 8 9 9 8 9 7 6 5 4 4 4 3 2 3 4 3 4 6 7 7 6 9 7 9 9 9 12 11
15 14 13 11 11 11 11 10 10 10 8 7 8 7 7 8 9 8 7 7 7 6 5 3 3 3 4 2 2 1 1 2 4 5 4 5 5 6 9 9 9 12 14
13 13 13 11 11 10 10 9 9 9 9 8 6 5 5 6 6 7 5 4 5 4 4 4 4 4 3 3 2 1 1 2 3 1 3 3 1 5 4 5 8 7 10
11 12 12 12 10 9 10 7 8 8 5 4 5 4 4 2 1 2 2 2 2 3 3 4 4 5 3 3 2 2 3 2 4 2 2 3 2 2 1 3 3 4 6
11 11 12 12 10 9 7 6 4 5 4 4 4 4 3 3 3 3 4 4 5 5 5 5 5 3 2 3 3 4 4 3 4 3 3 3 2 3 4 3 4 6 6
10 10 10 10 9 8 7 6 5 5 4 5 4 4 4 4 4 6 6 7 7 6 7 6 5 5 5 6 5 7 6 4 5 5 7 7 7 7 7 7 7 6 6
9 8 9 10 9 7 6 6 6 5 5 5 4 5 6 6 7 8 8 9 8 8 7 7 7 6 6 6 7 7 7 7 9 7 7 7 6 9 10 11 10 10 10
7 8 7 6 7 5 7 6 5 6 6 6 5 7 7 8 9 10 9 10 8 8 8 8 8 7 7 8 8 7 7 8 9 6 7 8 7 10 10 11 12 12 11
7 7 6 6 6 5 5 5 7 7 7 7 7 7 7 7 8 8 7 8 8 9 8 10 10 10 10 11 10 9 8 8 7 6 7 7 10 10 11 9 11 11 11
9 8 6 6 6 5 5 5 6 5 5 5 6 6 6 7 8 8 8 7 8 7 5 7 8 8 9 7 6 8 9 7 7 7 9 9 9 10 9 10 10 11 11
9 7 7 6 6 6 5 4 5 4 5 5 6 6 6 6 5 5 5 5 5 5 5 5 6 7 6 6 7 7 7 8 8 8 9 8 9 7 9 13 11 10 10
9 8 7 7 6 7 6 5 4 4 5 5 4 6 4 4 3 4 5 6 5 4 4 5 5 6 7 8 10 10 10 10 9 9 8 11 12 10 9 11 11 9 10
9 8 8 8 8 8 7 5 5 5 4 7 6 5 5 2 2 4 5 4 5 5 4 4 5 5 5 7 9 10 10 12 12 11 10 10 14 15 13 11 10 9 8
10 10 10 10 10 9 6 6 5 4 4 5 5 5 3 3 2 4 3 4 3 4 4 5 4 3 4 5 4 6 8 11 12 12 11 8 14 14 14 13 12 8 8
11 12 12 11 10 8 7 7 6 5 4 5 4 3 4 4 3 3 3 4 3 2 1 1 0 1 2 3 4 6 8 11 10 9 10 8 8 14 15 14 12 8 6
12 12 11 9 8 8 6 5 5 5 5 5 5 4 5 5 5 2 4 3 3 2 4 3 2 3 3 3 5 6 7 7 8 7 7 8 5 7 11 11 11 9 7
14 12 11 9 9 8 7 5 6 5 5 5 4 4 5 6 5 3 3 3 5 3 4 3 2 3 4 4 4 5 5 4 4 3 2 1 2 3 7 9 9 8 7
14 13 12 10 10 9 5 4 4 4 5 4 4 5 6 6 4 3 4 3 4 2 2 2 2 2 3 4 4 4 4 3 4 3 3 6 7 5 2 3 8 8 10
13 13 13 11 10 7 5 5 4 5 3 3 3 4 6 5 4 4 3 3 4 3 4 2 3 3 4 5 4 3 1 4 5 4 3 3 2 2 3 4 6 8 6
16 15 13 13 12 9 7 5 3 3 2 2 3 3 3 3 3 3 3 3 4 5 5 2 2 2 2 3 3 3 4 1 4 6 5 3 2 4 2 10 6 5 7
16 15 15 14 13 10 11 6 4 2 2 3 2 2 2 2 3 5 5 5 5 6 5 3 3 2 5 1 2 3 4 6 4 3 4 1 3 1 5 9 7 6 7
17 15 14 14 13 11 11 8 7 6 5 2 2 1 2 3 5 7 7 7 6 5 6 6 3 3 1 6 2 2 6 5 4 4 1 2 3 4 5 4 6 4 7
15 15 14 14 12 11 12 11 8 8 5 3 3 3 3 4 4 5 6 6 7 6 8 9 6 5 2 2 2 3 1 3 1 2 6 2 3 4 4 3 2 1 4
13 13 14 14 13 12 12 12 11 10 8 6 5 4 4 4 3 4 5 4 5 6 7 8 8 8 6 5 2 5 4 4 3 6 5 5 4 3 4 3 2 3 4
Wind_Direction
143 135 146 138 135 127 136 132 127 118 113 110 106 105 102 101 105 114 119 120 116 112 113 113 105 95 92 79 79 83 79 80 87 88 88 98 104 118 117 118 126 118 124
139 142 145 143 135 139 134 136 134 131 127 123 119 124 118 115 117 123 125 125 126 126 123 108 97 79 69 81 89 92 93 104 109 109 97 101 119 126 132 138 142 136 136
139 146 152 152 144 139 139 139 136 135 143 134 139 128 124 128 129 115 120 122 122 115 103 101 94 83 89 89 118 127 136 91 87 104 105 88 91 135 136 150 140 146 140
145 152 155 152 148 139 135 142 148 152 147 146 143 140 139 127 126 128 129 133 135 128 123 120 136 153 171 157 193 142 67 66 71 86 94 75 87 106 138 149 158 160 160
147 154 152 148 143 143 146 152 143 149 155 142 133 127 112 122 121 127 129 119 122 120 143 162 167 184 192 202 213 237 268 11 12 355 54 20 121 113 141 158 162 168 172
151 159 147 153 150 158 153 152 154 137 135 122 125 140 146 142 138 131 158 169 171 194 203 202 206 210 201 218 269 298 310 341 305 335 342 43 133 85 204 161 181 181 170
154 154 150 164 161 165 149 147 133 135 158 173 183 189 198 207 217 238 252 237 233 239 237 232 241 263 286 240 239 252 259 260 276 286 289 271 241 245 263 235 198 198 192
149 148 148 153 166 160 156 160 165 182 188 205 209 216 231 241 254 256 260 261 258 256 252 253 253 246 242 237 237 239 246 253 238 239 230 223 224 230 222 226 216 216 209
147 157 165 169 167 158 171 179 190 199 218 228 244 254 258 263 261 258 255 260 264 262 261 255 253 250 244 252 249 249 251 245 248 239 249 245 219 236 236 229 219 219 212
164 173 170 167 164 180 171 190 208 223 239 246 253 261 263 262 257 256 257 242 254 261 263 261 260 260 254 254 251 254 257 253 254 249 251 255 271 266 268 238 222 215 223
182 183 178 179 183 185 193 202 226 233 244 252 247 251 271 269 274 270 269 274 258 255 252 250 248 251 254 256 255 247 250 256 248 249 253 243 257 270 277 222 212 217 225
187 188 188 197 190 197 213 218 233 234 249 263 269 278 272 275 274 264 264 266 256 258 284 252 248 249 249 259 257 239 248 257 254 253 244 245 257 269 266 217 197 210 223
190 192 187 194 204 216 218 228 232 232 250 254 260 264 278 276 293 261 260 270 260 229 249 241 247 245 253 256 257 263 264 257 258 253 256 242 251 255 242 200 206 220 222
194 195 189 200 211 220 226 233 256 242 252 254 257 261 250 264 275 265 270 289 268 239 241 242 243 244 252 252 256 254 249 248 244 244 248 222 229 231 218 220 210 221 238
203 203 203 199 214 220 219 236 259 275 246 264 254 261 237 288 282 281 287 272 281 276 266 264 260 260 258 249 248 254 261 255 248 243 244 224 225 223 207 190 209 197 216
206 205 200 206 208 214 225 235 254 280 280 236 263 264 250 281 277 302 285 283 274 270 294 272 265 287 275 257 261 282 277 262 249 239 239 230 226 224 201 185 194 192 209
208 207 205 210 208 213 229 239 240 256 265 271 266 261 247 242 245 284 334 308 294 245 308 57 197 268 250 253 287 294 285 275 268 253 241 233 239 213 207 183 173 183 192
213 208 207 209 210 215 216 210 212 240 256 259 256 278 265 238 244 292 319 324 325 298 1 349 355 300 298 299 330 318 309 302 301 271 242 246 211 195 198 184 164 170 191
211 212 212 209 213 208 212 217 227 230 244 244 243 257 267 254 246 257 302 320 325 354 0 333 341 324 305 311 316 341 342 342 335 326 298 304 80 121 163 174 174 184 200
215 213 213 209 212 211 216 240 252 259 253 251 239 244 252 265 267 250 268 285 293 310 301 345 304 302 298 343 326 6 22 36 35 32 38 41 67 84 192 198 198 206 208
217 213 215 210 212 208 212 223 235 251 262 283 278 258 247 242 240 213 273 279 291 282 300 303 304 347 1 358 332 311 156 91 80 67 66 91 126 121 281 230 218 213 205
211 211 209 213 208 211 218 222 235 254 263 299 305 272 209 203 212 231 259 268 272 269 265 298 330 334 335 21 337 289 330 190 88 62 62 101 135 240 271 251 237 231 218
212 207 207 209 207 210 218 216 213 238 258 270 246 201 187 237 237 233 245 255 257 266 303 305 294 284 327 41 16 345 319 338 335 59 61 46 313 301 248 270 260 244 225
215 206 207 207 203 205 204 216 211 225 233 234 280 271 274 266 260 244 241 244 263 282 283 284 273 279 309 321 351 72 55 32 343 322 126 312 285 274 273 252 267 227 194
206 202 203 202 203 206 202 215 210 220 229 241 260 290 306 326 304 250 251 270 275 274 274 269 271 273 209 251 208 113 136 101 48 285 289 274 241 244 246 245 212 169 186
205 204 199 198 206 203 204 211 216 221 228 234 236 255 268 289 294 255 260 265 291 295 280 270 260 253 248 234 239 154 165 174 210 254 248 254 263 251 216 192 191 156 139